Temp
66 71 75 76 76 76 76 76 76 76 76 76 76 76 76 76 76 76 76 76 77 77 77 77 77 77 77 76 75 74 74 73 74 75 75 75 76 75 75 73 73 71 75
69 72 74 75 76 76 76 75 75 75 75 76 76 76 76 76 76 76 76 76 76 76 77 76 76 76 75 74 74 73 73 73 73 73 74 75 75 75 75 74 73 73 74
69 72 73 75 76 75 75 75 75 75 76 76 76 76 76 76 76 76 76 75 76 76 76 76 76 75 74 73 73 73 73 72 71 71 71 66 68 74 74 73 73 74 74
72 73 73 73 75 75 74 74 75 75 75 76 76 75 76 76 76 76 76 75 75 76 76 76 75 74 73 73 73 73 73 72 71 69 66 67 71 75 74 73 73 73 73
71 73 73 72 74 74 74 74 74 75 75 75 75 75 76 76 76 75 75 75 75 76 76 75 75 74 73 73 73 73 73 71 69 67 64 65 66 73 73 72 71 71 71
72 73 71 73 74 74 74 74 74 75 75 75 75 75 75 76 76 74 75 75 75 75 75 75 74 73 73 73 72 72 72 70 67 63 64 69 68 73 72 71 70 70 70
72 73 71 72 73 73 74 74 74 74 75 75 75 75 75 75 75 74 75 74 75 76 75 74 74 73 72 72 72 72 71 68 63 62 64 67 69 73 71 71 70 70 70
72 71 72 69 71 72 73 73 73 74 74 75 75 75 75 75 75 74 74 75 75 75 74 74 73 72 72 71 72 70 68 66 64 62 62 63 70 72 71 71 69 69 69
72 70 71 70 70 69 70 71 72 73 73 73 74 74 73 73 73 74 74 74 74 75 74 73 72 71 71 71 70 68 66 64 61 62 64 63 70 72 71 70 69 68 68
70 70 70 71 71 71 70 66 68 70 70 71 71 70 68 69 69 70 71 71 73 74 73 72 71 70 71 70 68 66 64 64 61 61 61 63 71 72 71 70 69 68 67
67 69 70 71 71 71 70 67 65 66 67 67 67 65 65 69 69 67 67 68 71 71 71 70 70 69 68 67 66 64 63 60 59 59 60 67 71 72 71 70 69 68 67
65 67 70 69 68 68 69 66 66 68 69 71 69 68 69 68 68 68 64 65 67 67 69 69 68 66 62 61 61 62 59 59 58 58 59 67 71 72 70 69 68 68 66
66 67 69 68 68 68 67 65 66 65 67 68 68 68 68 67 65 64 60 61 63 62 63 64 62 60 59 59 58 58 57 57 56 57 60 66 71 72 71 70 68 68 67
64 67 68 68 67 67 67 65 65 64 65 66 67 67 66 63 64 59 59 59 60 62 61 59 58 58 58 58 58 57 56 55 54 55 57 62 68 71 71 70 69 68 67
61 67 67 67 67 67 65 66 64 65 65 68 67 67 66 64 62 58 58 58 59 60 59 57 57 56 57 57 56 56 55 54 54 54 54 57 64 68 71 71 70 69 68
62 63 66 65 67 67 65 65 63 63 63 64 68 67 66 63 62 58 57 57 58 59 58 57 56 55 55 55 54 54 54 53 53 53 53 54 61 65 68 71 70 69 69
61 63 65 65 65 65 65 65 64 63 62 62 65 67 64 62 61 58 57 56 57 58 58 55 55 54 53 54 53 53 52 52 52 52 52 52 54 60 64 68 70 69 69
62 62 64 66 64 64 65 65 64 64 62 63 62 61 62 60 59 57 57 57 57 58 56 55 53 52 51 51 50 50 51 51 51 50 50 50 50 52 57 64 67 68 68
63 62 64 65 63 63 64 64 65 64 63 63 63 62 61 61 60 58 58 57 58 58 56 56 53 52 51 52 50 48 49 49 49 51 48 48 48 48 49 56 60 60 65
61 62 63 64 63 63 63 64 63 63 63 63 62 62 62 62 61 59 58 57 58 58 55 55 54 52 54 51 53 50 46 47 47 47 47 48 47 47 47 47 47 50 55
61 61 62 63 64 63 62 61 61 60 61 61 62 63 61 63 63 60 58 57 57 57 57 56 53 53 50 51 49 47 48 47 45 45 45 45 45 45 44 44 46 46 47
60 60 61 63 63 64 63 63 62 62 61 62 62 62 62 62 63 62 60 59 58 57 57 57 55 50 49 51 49 46 45 45 43 46 44 45 44 43 43 43 42 42 41
57 60 62 62 63 64 64 64 63 62 60 58 58 60 62 63 62 62 61 60 58 59 57 57 56 54 49 49 49 51 43 42 41 42 42 43 44 41 41 41 41 41 40
56 58 61 61 62 64 64 63 61 60 58 60 59 61 61 62 62 62 61 61 59 58 57 56 56 56 52 48 48 50 48 48 44 42 41 41 42 42 43 41 43 42 41
58 57 59 60 61 62 62 63 61 61 61 61 60 59 58 58 59 60 60 59 59 58 57 56 56 55 53 51 49 45 48 45 45 44 45 42 40 41 44 44 43 43 42
55 57 59 59 59 60 61 61 60 60 59 58 57 56 57 57 57 56 55 55 55 56 56 55 55 55 53 53 52 47 46 45 45 43 41 46 43 42 41 42 42 42 40
MSLP
1006.95 1007.05 1007.30 1007.67 1008.62 1009.17 1009.58 1010.14 1010.53 1010.73 1011.21 1011.61 1012.03 1012.48 1012.85 1013.17 1013.50 1013.77 1013.91 1014.32 1014.56 1014.82 1015.01 1015.25 1015.42 1015.70 1015.88 1016.13 1016.38 1016.66 1016.78 1016.81 1016.87 1016.97 1017.10 1017.14 1017.22 1017.37 1017.50 1017.57 1017.57 1017.61 1017.57
1005.83 1006.66 1007.07 1007.60 1008.06 1008.86 1009.53 1010.03 1010.48 1011.05 1011.22 1011.70 1012.06 1012.48 1012.93 1013.23 1013.61 1013.88 1014.08 1014.38 1014.71 1014.93 1015.24 1015.48 1015.68 1015.92 1016.13 1016.41 1016.59 1016.94 1016.97 1017.13 1017.21 1017.29 1017.34 1017.34 1017.45 1017.56 1017.69 1017.85 1017.81 1017.86 1018.00
1005.72 1006.30 1007.02 1007.60 1008.08 1008.57 1009.22 1010.00 1010.47 1010.97 1011.28 1011.67 1012.04 1012.49 1013.08 1013.33 1013.49 1014.00 1014.17 1014.52 1014.77 1015.02 1015.33 1015.68 1015.90 1016.22 1016.45 1016.75 1016.85 1017.12 1017.18 1017.40 1017.47 1017.56 1017.71 1017.83 1017.82 1017.78 1017.95 1018.11 1018.20 1018.29 1018.33
1005.51 1006.14 1006.77 1007.39 1008.03 1008.45 1009.02 1009.70 1010.32 1010.89 1011.21 1011.62 1012.11 1012.42 1013.07 1013.54 1013.67 1013.88 1014.35 1014.54 1014.82 1015.11 1015.44 1015.76 1016.07 1016.39 1016.65 1016.84 1016.99 1017.16 1017.38 1017.56 1017.65 1017.79 1017.95 1018.09 1018.08 1018.07 1018.31 1018.46 1018.64 1018.74 1018.72
1005.78 1005.93 1006.60 1007.35 1008.08 1008.47 1009.10 1009.47 1010.10 1010.74 1011.13 1011.56 1012.18 1012.46 1012.97 1013.45 1013.83 1014.11 1014.40 1014.74 1014.90 1015.13 1015.46 1015.83 1016.16 1016.48 1016.69 1016.90 1017.12 1017.16 1017.35 1017.75 1017.91 1018.08 1018.18 1018.39 1018.43 1018.57 1018.82 1019.10 1019.22 1019.31 1019.35
1005.85 1006.10 1006.52 1007.10 1008.01 1008.54 1009.06 1009.49 1010.12 1010.58 1011.12 1011.59 1012.02 1012.45 1012.97 1013.46 1013.93 1014.29 1014.47 1014.84 1015.05 1015.29 1015.45 1015.83 1016.27 1016.60 1016.81 1016.96 1017.12 1017.32 1017.54 1017.85 1018.14 1018.32 1018.41 1018.53 1018.73 1018.93 1019.23 1019.47 1019.69 1019.74 1019.71
1006.01 1006.26 1006.59 1006.94 1007.72 1008.41 1009.03 1009.49 1010.10 1010.66 1011.01 1011.75 1011.93 1012.47 1012.93 1013.61 1013.87 1014.38 1014.84 1014.89 1014.96 1015.31 1015.60 1015.82 1016.23 1016.74 1016.97 1017.15 1017.22 1017.46 1017.75 1018.03 1018.31 1018.48 1018.63 1018.75 1018.84 1019.13 1019.50 1019.75 1019.91 1019.98 1020.00
1006.26 1006.73 1007.13 1007.25 1007.68 1008.10 1008.92 1009.50 1009.95 1010.60 1010.92 1011.69 1012.15 1012.55 1012.92 1013.59 1014.11 1014.56 1014.56 1014.93 1015.19 1015.29 1015.72 1016.00 1016.35 1016.77 1017.03 1017.18 1017.31 1017.56 1017.95 1018.22 1018.44 1018.66 1018.90 1019.04 1019.04 1019.24 1019.64 1019.93 1020.18 1020.25 1020.31
1006.50 1006.79 1007.24 1007.79 1007.92 1008.18 1008.66 1009.32 1009.89 1010.43 1010.95 1011.54 1012.12 1012.62 1012.97 1013.60 1014.31 1014.74 1014.83 1015.01 1015.38 1015.39 1015.79 1016.14 1016.51 1016.90 1017.17 1017.22 1017.41 1017.80 1018.09 1018.39 1018.65 1018.92 1019.14 1019.32 1019.20 1019.32 1019.75 1020.08 1020.32 1020.48 1020.57
1006.50 1006.94 1007.27 1007.60 1008.07 1008.33 1008.76 1009.41 1009.85 1010.41 1010.92 1011.41 1012.04 1012.54 1013.16 1013.53 1014.40 1014.96 1015.12 1015.21 1015.44 1015.51 1015.87 1016.25 1016.66 1016.96 1017.26 1017.41 1017.67 1018.00 1018.38 1018.62 1018.90 1019.08 1019.29 1019.43 1019.29 1019.47 1019.94 1020.23 1020.47 1020.64 1020.74
1006.58 1006.78 1007.25 1007.47 1007.98 1008.42 1008.82 1009.46 1010.02 1010.38 1010.99 1011.53 1012.07 1012.62 1013.14 1013.57 1014.23 1014.93 1015.27 1015.42 1015.56 1015.67 1015.90 1016.28 1016.81 1017.03 1017.33 1017.63 1017.80 1018.17 1018.50 1018.89 1019.10 1019.27 1019.33 1019.35 1019.34 1019.58 1019.97 1020.30 1020.56 1020.75 1020.94
1006.50 1006.29 1006.81 1007.33 1007.86 1008.60 1009.00 1009.53 1010.11 1010.46 1010.92 1011.36 1012.03 1012.62 1013.01 1013.54 1014.19 1014.69 1015.31 1015.40 1015.60 1015.80 1015.89 1016.26 1016.66 1017.10 1017.50 1017.90 1018.17 1018.41 1018.72 1019.03 1019.27 1019.34 1019.32 1019.29 1019.32 1019.56 1019.98 1020.34 1020.61 1020.83 1021.02
1006.59 1006.28 1006.30 1007.17 1007.71 1008.52 1009.18 1009.65 1010.18 1010.48 1010.91 1011.39 1011.93 1012.42 1012.99 1013.52 1014.21 1014.81 1015.33 1015.52 1015.64 1015.82 1016.01 1016.40 1016.74 1017.14 1017.52 1017.88 1018.32 1018.56 1018.89 1019.09 1019.36 1019.42 1019.30 1019.22 1019.21 1019.34 1019.69 1020.05 1020.43 1020.71 1020.94
1006.49 1006.26 1006.03 1006.61 1007.44 1008.16 1009.02 1009.80 1010.01 1010.60 1010.84 1011.36 1011.89 1012.42 1012.96 1013.73 1014.17 1014.84 1015.31 1015.62 1015.77 1015.91 1016.25 1016.52 1017.01 1017.37 1017.62 1017.89 1018.24 1018.62 1018.94 1019.21 1019.42 1019.47 1019.39 1019.25 1019.22 1019.19 1019.35 1019.68 1019.93 1020.25 1020.53
1006.48 1005.72 1005.73 1006.13 1006.79 1007.52 1008.68 1009.61 1009.97 1010.41 1010.70 1011.18 1011.74 1012.40 1012.91 1013.58 1014.28 1014.83 1015.28 1015.69 1015.89 1015.95 1016.36 1016.68 1017.18 1017.48 1017.72 1017.94 1018.26 1018.52 1018.85 1019.11 1019.32 1019.49 1019.50 1019.36 1019.22 1019.23 1019.09 1019.28 1019.63 1019.90 1020.06
1006.17 1005.52 1005.11 1005.67 1006.10 1006.80 1007.87 1009.01 1009.72 1010.19 1010.60 1011.23 1011.58 1012.21 1012.72 1013.52 1014.06 1014.68 1015.24 1015.55 1015.93 1016.01 1016.28 1016.68 1017.14 1017.45 1017.77 1018.04 1018.37 1018.56 1018.76 1019.06 1019.26 1019.44 1019.51 1019.47 1019.27 1019.21 1019.13 1018.98 1019.22 1019.56 1019.79
1005.32 1004.63 1004.99 1004.46 1004.92 1006.01 1007.11 1008.33 1009.18 1009.84 1010.54 1011.12 1011.48 1011.97 1012.73 1013.34 1014.04 1014.54 1015.13 1015.41 1015.71 1015.94 1016.29 1016.75 1017.12 1017.55 1017.93 1018.12 1018.45 1018.68 1018.89 1019.10 1019.31 1019.48 1019.56 1019.57 1019.44 1019.25 1019.20 1019.11 1018.97 1019.20 1019.47
1005.10 1004.52 1004.62 1003.48 1004.12 1005.31 1005.98 1007.59 1008.55 1009.49 1010.21 1010.92 1011.46 1012.01 1012.69 1013.37 1013.95 1014.48 1015.02 1015.31 1015.44 1015.84 1016.22 1016.73 1017.04 1017.52 1017.90 1018.20 1018.53 1018.82 1019.03 1019.23 1019.38 1019.48 1019.60 1019.62 1019.55 1019.40 1019.19 1018.99 1018.98 1019.15 1019.40
1004.20 1004.63 1003.68 1003.78 1002.68 1004.77 1005.86 1006.85 1008.02 1009.02 1009.72 1010.51 1011.15 1011.73 1012.36 1013.07 1013.69 1014.21 1014.60 1014.95 1015.19 1015.67 1016.16 1016.60 1016.97 1017.20 1017.83 1018.13 1018.56 1018.87 1019.11 1019.29 1019.34 1019.45 1019.59 1019.62 1019.65 1019.65 1019.59 1019.38 1019.12 1019.29 1019.33
1003.86 1003.40 1003.09 1003.33 1004.01 1003.98 1004.93 1007.02 1008.19 1008.90 1009.44 1010.01 1010.71 1011.16 1011.87 1012.52 1013.22 1013.89 1014.36 1014.70 1015.00 1015.48 1015.93 1016.44 1016.70 1017.12 1017.57 1017.67 1018.35 1018.91 1019.08 1019.14 1019.30 1019.43 1019.45 1019.45 1019.62 1019.71 1019.79 1019.77 1019.71 1019.60 1019.61
1003.73 1003.78 1003.79 1004.00 1003.84 1004.66 1004.86 1006.62 1007.81 1008.57 1009.24 1009.81 1010.44 1010.54 1011.22 1011.84 1012.54 1013.29 1014.05 1014.47 1014.84 1015.29 1015.55 1016.04 1016.61 1016.95 1017.58 1017.87 1018.46 1019.03 1018.96 1018.75 1018.83 1018.95 1019.04 1019.23 1019.30 1019.36 1019.54 1019.70 1019.71 1019.76 1019.84
1003.77 1003.13 1003.45 1003.49 1004.15 1003.97 1004.27 1006.16 1006.88 1007.91 1008.68 1009.06 1009.91 1010.27 1010.68 1011.18 1011.74 1012.48 1013.29 1013.80 1014.31 1014.93 1015.41 1015.76 1016.20 1016.71 1017.29 1017.69 1018.06 1018.82 1019.05 1018.57 1018.32 1018.20 1018.36 1018.59 1018.64 1018.87 1018.96 1019.12 1019.29 1019.42 1019.62
1003.62 1002.81 1003.53 1003.62 1003.98 1004.19 1004.29 1005.26 1006.32 1007.51 1008.67 1009.10 1009.68 1010.18 1010.45 1010.64 1011.34 1011.92 1012.44 1013.06 1013.59 1014.20 1014.58 1014.94 1015.59 1015.89 1016.50 1017.19 1017.24 1017.42 1018.71 1018.25 1018.32 1017.79 1017.79 1017.98 1018.07 1018.30 1018.45 1018.64 1018.72 1018.87 1019.11
1003.05 1002.47 1003.16 1003.74 1003.69 1003.80 1004.04 1003.64 1005.13 1006.15 1007.03 1007.56 1008.63 1009.26 1009.65 1010.03 1010.62 1011.31 1011.73 1012.17 1012.70 1013.46 1013.92 1014.20 1014.64 1015.17 1015.43 1016.32 1017.15 1016.93 1016.94 1016.97 1017.55 1017.66 1017.55 1017.46 1017.71 1017.80 1018.08 1018.23 1018.32 1018.50 1018.59
1002.31 1002.11 1002.93 1003.43 1003.63 1002.86 1003.83 1004.13 1005.19 1006.02 1006.62 1006.76 1007.88 1008.71 1009.63 1009.84 1010.32 1010.75 1011.18 1011.72 1012.22 1012.73 1013.08 1013.51 1014.09 1014.47 1014.76 1015.14 1015.34 1015.89 1016.33 1016.82 1017.12 1017.42 1017.27 1017.34 1017.57 1017.41 1017.28 1017.46 1017.61 1017.72 1017.92
1002.31 1003.28 1002.41 1003.20 1004.05 1003.73 1004.17 1003.97 1005.36 1005.74 1006.42 1006.62 1007.49 1008.47 1009.36 1009.78 1010.16 1010.50 1011.05 1011.58 1012.01 1012.33 1012.64 1012.89 1013.29 1013.74 1014.01 1014.13 1014.36 1014.85 1015.42 1016.14 1016.43 1016.78 1017.32 1017.02 1016.90 1016.78 1016.95 1017.12 1017.22 1017.48 1017.76
Wind_Speed
9 16 24 26 25 22 21 20 19 21 21 22 23 22 21 20 20 18 17 17 16 15 15 14 15 13 14 15 15 13 12 10 12 14 13 13 14 14 15 14 13 9 17
14 17 24 26 26 24 21 20 20 20 22 22 21 21 21 21 20 19 17 18 16 17 16 15 15 14 13 13 14 12 12 12 13 11 10 13 15 15 16 15 15 13 17
15 17 20 25 25 25 23 21 20 21 21 21 22 22 20 21 21 20 18 17 17 17 16 16 15 15 13 12 12 10 11 12 11 10 10 5 6 17 19 18 17 17 17
18 17 18 23 25 25 25 22 21 22 22 21 22 23 21 20 20 20 18 17 17 17 17 16 16 14 13 12 11 9 10 11 10 10 5 5 7 17 17 16 15 14 14
16 17 17 22 24 24 24 23 21 22 22 21 22 22 21 20 18 18 18 17 17 17 16 16 15 14 13 11 9 9 15 11 10 7 6 6 5 14 16 15 13 13 12
15 16 18 23 23 23 24 23 21 22 22 22 22 23 21 20 19 17 18 16 15 16 16 15 14 13 13 11 10 13 15 13 10 6 6 9 7 14 14 12 13 12 12
16 14 15 23 23 23 23 23 21 21 21 19 20 21 21 18 19 18 17 16 15 15 15 15 15 13 11 9 10 14 14 12 6 5 4 6 8 15 13 11 12 12 12
13 10 13 17 22 23 23 22 21 21 20 18 17 18 21 18 19 18 17 17 16 16 14 14 14 11 9 8 12 14 12 10 6 6 5 5 13 16 14 12 12 12 12
10 10 11 12 16 20 22 21 20 21 20 19 17 17 19 18 15 17 17 17 16 15 13 13 12 11 9 9 14 13 12 10 6 4 5 3 13 15 12 13 12 12 11
10 10 10 11 11 13 14 15 15 17 17 18 15 15 14 14 13 10 15 12 14 14 11 11 10 10 10 10 11 11 11 10 6 5 4 3 12 12 13 12 12 11 10
9 12 12 12 11 10 11 12 12 14 14 14 12 13 13 8 10 9 7 9 12 11 11 11 9 8 8 8 12 10 9 3 4 3 3 9 11 11 11 12 10 10 9
14 15 15 12 11 10 9 10 8 10 9 10 10 10 8 8 7 7 7 9 8 9 10 12 10 8 6 3 4 7 3 4 3 4 3 10 12 14 14 12 11 8 8
14 11 16 14 13 12 10 7 5 5 6 6 10 10 7 7 6 5 3 3 3 6 3 6 5 4 6 5 4 4 4 4 3 2 4 9 12 14 15 14 13 11 7
12 15 15 16 13 13 7 7 7 6 5 6 7 9 7 4 6 4 3 3 3 4 4 4 3 4 5 5 6 5 5 4 3 2 3 7 8 14 15 15 16 14 10
9 16 16 16 16 15 12 8 7 8 6 8 8 8 7 6 5 5 4 3 3 3 3 4 4 4 5 5 5 6 6 5 5 2 2 6 7 8 16 16 16 15 12
10 9 17 17 18 18 14 13 8 6 6 6 8 8 9 6 6 5 4 4 3 3 3 4 4 4 4 4 5 5 5 4 4 4 3 3 7 9 13 17 18 16 13
11 9 17 17 19 18 16 14 10 8 7 7 7 7 8 7 7 6 5 4 4 4 5 4 4 3 3 2 4 4 4 4 4 4 3 3 4 5 9 14 17 17 12
10 11 13 14 16 21 20 14 10 9 8 8 7 7 9 7 7 6 5 5 4 4 4 4 4 4 3 4 3 3 3 3 4 4 3 3 3 3 4 8 13 14 12
11 11 12 16 17 19 17 12 13 14 10 8 8 8 10 10 9 7 6 5 6 5 4 5 2 4 3 3 3 3 2 3 4 2 5 5 4 3 2 6 2 3 8
8 5 9 8 6 17 13 10 8 9 9 9 9 9 11 9 10 8 5 5 6 5 4 4 4 2 2 4 4 2 1 3 3 4 5 3 4 5 3 3 2 1 3
9 8 8 11 11 12 11 10 10 10 9 8 8 12 12 11 11 10 6 6 6 7 7 7 3 5 2 3 4 0 3 5 5 5 4 4 6 5 5 4 3 2 3
9 8 8 11 10 16 12 12 9 10 8 9 9 10 12 13 13 11 10 9 9 6 7 8 6 3 3 6 4 2 3 3 4 7 5 6 8 4 5 6 6 6 5
8 8 9 11 14 15 11 12 9 8 4 4 5 6 10 11 11 11 11 9 9 8 8 10 10 9 7 5 5 4 2 6 1 1 7 6 8 6 5 6 7 6 6
7 5 7 8 4 12 14 16 16 12 10 7 9 8 8 12 13 13 12 11 11 9 9 10 9 8 5 7 2 6 3 3 5 4 3 4 6 8 7 4 6 6 7
6 4 6 5 3 6 5 11 10 11 9 7 8 10 8 8 9 10 10 11 10 9 10 11 10 11 7 5 5 3 6 2 2 4 7 2 2 5 7 7 7 6 7
2 4 7 6 5 7 3 5 9 12 9 8 7 8 7 5 6 7 6 6 5 7 8 9 10 10 10 8 7 5 4 3 5 5 5 8 5 3 3 4 5 4 2
Wind_Direction
199 172 166 157 157 154 152 151 149 144 142 143 142 142 145 145 142 143 138 139 141 134 133 133 128 134 127 119 109 98 89 78 108 97 102 103 103 99 94 89 81 77 84
151 168 165 160 158 155 154 153 152 150 146 148 146 144 147 148 145 142 142 143 139 139 138 138 137 133 123 117 113 109 98 92 89 93 96 103 104 104 98 89 88 88 82
153 161 164 162 160 156 154 155 155 154 152 152 149 149 153 148 146 149 147 143 144 141 140 140 136 135 132 131 124 124 113 107 102 95 91 83 97 104 97 87 84 85 83
158 164 165 164 163 158 156 158 159 158 155 156 154 151 154 153 151 149 149 148 148 147 145 143 141 139 139 138 133 132 132 118 110 103 90 87 105 103 89 81 77 76 71
164 163 163 163 165 160 158 159 159 159 156 152 154 151 158 155 154 152 150 153 152 149 148 146 144 144 143 140 131 127 139 133 116 102 101 93 83 90 91 84 89 88 87
165 167 161 163 167 163 160 162 162 161 159 158 160 153 156 160 160 151 156 157 154 153 151 148 147 147 146 144 136 136 131 129 115 114 113 119 101 109 101 102 93 90 92
169 169 164 164 164 161 161 163 163 161 158 167 157 156 154 162 162 159 162 163 159 156 150 148 151 150 149 150 153 141 134 128 124 115 110 111 116 112 106 104 101 99 97
166 163 172 162 160 157 162 165 165 164 160 163 162 159 156 168 168 169 163 165 164 158 154 151 152 151 152 157 156 140 133 128 118 118 111 107 124 119 112 111 109 104 101
162 159 168 167 162 162 162 165 166 165 163 160 169 162 159 156 165 175 170 167 170 164 157 156 153 153 152 151 144 137 131 126 126 129 125 129 132 120 124 124 120 114 108
160 165 169 175 164 163 163 161 161 162 160 160 172 159 147 147 155 170 176 166 172 169 162 155 150 156 158 151 137 139 130 126 128 134 137 161 142 130 137 133 128 122 114
166 178 176 177 176 169 163 164 161 161 161 160 151 145 144 154 155 168 166 174 177 176 161 152 148 156 154 160 148 139 129 130 137 146 158 176 152 147 150 143 141 133 127
189 184 178 176 164 166 165 165 167 171 166 166 159 155 151 143 148 164 171 177 176 177 171 156 148 148 110 121 129 123 127 146 149 162 173 175 167 160 158 162 155 148 142
212 191 176 176 165 168 170 168 173 163 167 149 152 153 145 147 148 160 166 178 180 157 137 123 130 134 137 132 129 139 147 150 161 183 199 188 185 177 173 169 169 167 169
244 204 176 171 165 166 162 172 170 164 163 153 159 157 153 151 161 153 158 172 172 157 146 133 138 147 143 142 149 153 159 161 173 194 231 214 216 196 188 184 182 182 180
285 215 181 171 169 165 159 174 167 171 164 168 161 162 159 159 161 151 160 165 181 148 151 140 148 153 156 156 160 164 172 180 185 198 238 278 229 233 213 202 194 195 181
271 264 188 181 172 165 165 167 168 162 155 162 171 173 164 157 159 164 163 173 179 171 156 145 162 166 175 161 172 178 180 183 193 206 231 268 265 243 246 220 202 202 198
281 260 232 182 171 167 169 165 163 162 156 167 175 170 161 156 172 164 172 170 181 176 157 131 132 125 138 146 172 177 169 186 200 219 237 260 289 284 254 261 218 208 209
256 247 258 187 177 170 168 168 166 165 163 170 164 159 164 165 170 166 178 192 173 167 163 165 151 146 155 166 159 176 175 181 206 220 241 254 271 288 306 260 238 216 215
234 221 237 207 190 178 163 166 170 168 168 172 166 169 174 175 177 179 185 189 172 175 172 173 154 141 165 150 166 155 176 209 219 217 239 245 253 275 298 324 22 348 240
223 230 245 216 154 162 154 159 170 172 173 170 178 177 174 180 180 183 188 181 179 177 168 175 152 121 168 160 135 151 244 243 238 231 238 235 234 245 261 279 328 322 307
210 183 208 211 195 158 157 171 173 177 176 176 186 178 177 186 185 184 185 167 179 191 186 178 144 158 137 151 117 343 255 232 232 225 223 223 230 223 221 228 236 245 266
205 175 206 216 226 173 160 174 173 178 189 179 186 183 184 187 186 190 185 188 182 179 180 180 173 142 127 184 147 89 282 303 253 230 214 222 227 213 220 213 218 221 226
219 175 173 209 186 209 183 160 156 151 147 140 170 186 196 189 189 190 189 183 181 192 193 186 192 180 173 196 216 153 156 223 331 185 228 220 220 212 223 217 219 216 216
226 175 177 180 181 204 184 167 172 173 177 176 182 189 190 180 186 193 194 198 188 194 190 197 184 202 150 177 209 242 237 150 199 303 241 235 220 230 241 238 233 228 218
250 155 161 152 156 244 177 160 169 184 187 165 171 179 188 183 186 194 197 193 193 194 201 194 194 198 204 172 184 151 212 191 241 194 270 259 220 223 227 222 224 225 216
267 222 110 115 101 58 106 161 173 193 169 154 153 161 177 190 193 181 173 186 194 198 199 201 204 211 209 206 202 178 162 174 208 207 247 266 268 252 217 223 227 243 228